FW9827 Weather Reports


time (UTC)temp
C
wind
direction
speed
KPH
gust
KPH
rain 1hr
cm
rain 24hr
cm
rain mn
cm
humidity
%
barometer
mb
20260506091541 10 180 6.4 20.9 0.00 0.00 0.00 89 1010.5
20260506090040 10 236 6.4 20.9 0.00 0.00 0.00 89 1010.3
20260506084538 10 165 12.9 30.6 0.00 0.00 0.00 89 1010.2
20260506083037 10 204 9.7 25.7 0.00 0.00 0.00 88 1010.2
20260506081542 11 163 9.7 24.1 0.00 0.00 0.00 87 1010.2
20260506073038 11 178 9.7 25.7 0.00 0.00 0.00 86 1009.8
20260506071538 11 208 9.7 25.7 0.00 0.00 0.00 86 1009.8
20260506061542 11 190 6.4 24.1 0.00 0.00 0.00 85 1009.7
20260506044538 11 200 8.0 20.9 0.00 0.00 0.00 85 1009.9
20260506043036 11 153 6.4 17.7 0.00 0.00 0.00 86 1009.5
20260506041542 11 219 8.0 22.5 0.00 0.00 0.00 86 1009.8
20260506040046 11 205 6.4 24.1 0.00 0.00 0.00 85 1009.6
20260506034541 11 213 9.7 20.9 0.00 0.00 0.00 84 1009.7
20260506033039 11 166 6.4 25.7 0.00 0.00 0.00 84 1009.6
20260506031540 11 206 6.4 17.7 0.00 0.00 0.00 83 1009.6
20260506030044 11 232 6.4 20.9 0.00 0.00 0.00 82 1009.7
20260506024557 11 212 4.8 16.1 0.00 0.00 0.00 81 1009.5
20260506023042 12 178 8.0 22.5 0.00 0.00 0.00 80 1009.7
20260506021540 12 183 6.4 17.7 0.00 0.00 0.00 79 1010.1
20260506020040 12 190 6.4 17.7 0.00 0.00 0.00 78 1009.9
20260506014537 13 206 6.4 25.7 0.00 0.00 0.00 77 1009.9
20260506013035 13 166 4.8 20.9 0.00 0.00 0.00 76 1010.0
20260506011559 13 197 4.8 22.5 0.00 0.00 0.00 77 1009.5
20260506010043 13 193 9.7 25.7 0.00 0.00 0.00 78 1009.5
20260506004557 13 168 4.8 16.1 0.00 0.00 0.00 76 1009.1
20260506003039 13 189 4.8 19.3 0.00 0.00 0.00 76 1008.8
20260506001537 13 182 3.2 17.7 0.00 0.00 0.00 75 1008.7
20260505234543 12 206 11.3 43.5 0.00 0.00 0.00 79 1008.8
20260505233040 12 251 14.5 49.9 0.00 0.00 0.00 78 1008.7
20260505231541 12 226 12.9 37.0 0.00 0.00 0.00 78 1006.7
20260505230057 13 205 17.7 38.6 0.00 0.00 0.00 77 1006.4
20260505224540 13 200 12.9 45.1 0.00 0.00 0.00 74 1006.3
20260505223038 14 213 12.9 37.0 0.00 0.00 0.00 73 1005.7
20260505221535 14 186 12.9 38.6 0.00 0.00 0.00 73 1005.8
20260505220043 15 196 11.3 40.2 0.00 0.00 0.00 73 1005.8
20260505214540 15 186 11.3 40.2 0.00 0.00 0.00 72 1005.7
20260505213038 16 210 12.9 38.6 0.00 0.00 0.00 69 1005.9
20260505211540 16 162 12.9 30.6 0.00 0.00 0.00 68 1005.7
20260505210042 16 225 6.4 27.4 0.00 0.00 0.00 69 1005.9
20260505204549 16 162 9.7 24.1 0.00 0.00 0.00 68 1005.9
20260505203052 17 186 6.4 33.8 0.00 0.00 0.00 68 1005.9
20260505201535 17 163 6.4 24.1 0.00 0.00 0.00 69 1006.1
20260505200046 16 154 8.0 24.1 0.00 0.00 0.00 70 1006.2
20260505194553 16 181 8.0 25.7 0.00 0.00 0.00 70 1006.6
20260505193042 16 171 8.0 25.7 0.00 0.00 0.00 72 1006.9
20260505191553 16 150 9.7 33.8 0.00 0.00 0.00 72 1006.9
20260505190040 16 159 8.0 24.1 0.00 0.00 0.00 71 1007.1
20260505184537 16 220 4.8 27.4 0.00 0.00 0.00 73 1007.3
20260505183035 16 180 8.0 25.7 0.00 0.00 0.00 73 1007.4
20260505181537 15 205 8.0 17.7 0.00 0.00 0.00 73 1007.6
20260505180046 15 171 4.8 24.1 0.00 0.00 0.00 74 1007.8
20260505174541 16 198 8.0 22.5 0.00 0.00 0.00 73 1008.2
20260505173038 16 202 8.0 22.5 0.00 0.00 0.00 72 1008.5
20260505171534 15 133 6.4 17.7 0.00 0.00 0.00 73 1008.4
20260505170042 16 179 3.2 17.7 0.00 0.00 0.00 73 1008.6
20260505164542 16 211 8.0 22.5 0.00 0.00 0.00 73 1008.8
20260505163039 15 207 8.0 17.7 0.00 0.00 0.00 73 1009.1
20260505161536 15 205 12.9 29.0 0.00 0.00 0.00 73 1009.2
20260505153042 12 186 11.3 30.6 0.00 0.00 0.00 82 1009.8
20260505151541 12 215 6.4 24.1 0.00 0.00 0.00 82 1009.8
20260505124552 12 211 11.3 29.0 0.00 0.00 0.00 79 1009.6
20260505123053 12 190 9.7 20.9 0.00 0.00 0.00 80 1009.6
20260505121607 11 153 9.7 24.1 0.00 0.00 0.00 81 1009.8
20260505120045 11 142 11.3 33.8 0.00 0.00 0.00 82 1010.1
20260505114542 11 186 4.8 16.1 0.00 0.00 0.00 84 1009.9
20260505113046 10 200 4.8 17.7 0.00 0.00 0.00 87 1010.0
20260505111545 9 189 3.2 16.1 0.00 0.00 0.00 89 1010.0
20260505101540 8 215 1.6 8.0 0.00 0.00 0.00 87 1009.6
20260505100054 8 186 3.2 12.9 0.00 0.00 0.00 87 1009.6
20260505094543 8 186 3.2 14.5 0.00 0.00 0.00 88 1009.6
20260505093036 8 194 1.6 11.3 0.00 0.00 0.00 87 1009.6